This is the latest recevied weather packets stored in our database for station/object WC4PEM-12. If no packets are shown the sender has not sent any weather packets the latest 10 day(s).
| Time | Temp. | Humidity | Pressure | Rain* | Wind** | Luminosity | Snow |
|---|---|---|---|---|---|---|---|
| 1777475594 | 27.78° C | 64% | 1017.8 hPa | 0 mm | - | - | - |
| 1777475294 | 27.78° C | 64% | 1017.8 hPa | 0 mm | - | - | - |
| 1777474994 | 27.78° C | 63% | 1017.6 hPa | 0 mm | - | - | - |
| 1777474694 | 27.78° C | 65% | 1017.7 hPa | 0 mm | - | - | - |
| 1777474589 | 27.78° C | 68% | 1017.7 hPa | 0 mm | - | - | - |
| 1777474394 | 27.78° C | 68% | 1017.7 hPa | 0 mm | - | - | - |
| 1777474094 | 27.78° C | 66% | 1017.5 hPa | 0 mm | - | - | - |
| 1777473973 | 27.78° C | 68% | 1017.5 hPa | 0 mm | - | - | - |
| 1777473794 | 27.78° C | 68% | 1017.5 hPa | 0 mm | - | - | - |
| 1777473655 | 27.22° C | 70% | 1017.6 hPa | 0 mm | - | - | - |
| 1777473494 | 27.22° C | 70% | 1017.6 hPa | 0 mm | - | - | - |
| 1777473194 | 27.22° C | 71% | 1017.8 hPa | 0 mm | - | - | - |
| 1777473032 | 26.67° C | 71% | 1018.1 hPa | 0 mm | - | - | - |
| 1777472894 | 26.67° C | 71% | 1018.1 hPa | 0 mm | - | - | - |
| 1777472688 | 26.67° C | 73% | 1017.9 hPa | 0 mm | - | - | - |
| 1777472594 | 26.67° C | 73% | 1017.9 hPa | 0 mm | - | - | - |
| 1777472294 | 26.67° C | 72% | 1017.9 hPa | 0 mm | - | - | - |
| 1777471994 | 26.11° C | 73% | 1017.8 hPa | 0 mm | - | - | - |
| 1777471831 | 26.11° C | 74% | 1017.5 hPa | 0 mm | - | - | - |
| 1777471694 | 26.11° C | 74% | 1017.5 hPa | 0 mm | - | - | - |
| 1777471594 | 26.11° C | 76% | 1017.7 hPa | 0 mm | - | - | - |
| 1777471394 | 26.11° C | 76% | 1017.7 hPa | 0 mm | - | - | - |
| 1777471094 | 25.56° C | 75% | 1017.6 hPa | 0 mm | - | - | - |
| 1777471011 | 25° C | 77% | 1017.7 hPa | 0 mm | - | - | - |
| 1777470794 | 25° C | 77% | 1017.7 hPa | 0 mm | - | - | - |
* Rain latest hour (hover to see other rain measurements)
** Current wind speed in m/s (hover to see current wind gust speed)